Simultaneous Nadir Overpasses (SNOs) Predictions

Prediction of SNOs between FY3D and METOP-A Satellite Orbit:

Table of predicted SNOs for the next 14.0 days since TLE Epoch: 4/11/2020
Index Date (FY3D) Time (FY3D) Lat,Lon (FY3D) SZA (FY3D ) Date (METOP-A) Time (METOP-A) Lat,Lon (METOP-A) SZA (METOP-A ) Distance(km) Time Diff (sec)
1 04/12/2020 19:20:57 -76.04, 54.22 112.55 04/12/2020 19:22:03 -75.99, 57.58 112.83 90.65 66
2 04/12/2020 20:11:38 75.85,-137.82 67.21 04/12/2020 20:12:47 75.80,-135.70 67.01 58.17 69
3 04/12/2020 21:02:20 -75.76, 29.78 112.91 04/12/2020 21:03:30 -75.74, 31.43 113.06 45.33 70
4 04/12/2020 21:53:01 75.57,-162.28 66.85 04/12/2020 21:54:14 75.54,-161.83 66.78 12.72 73
5 04/12/2020 22:43:43 -75.48, 5.31 113.27 04/12/2020 22:44:57 -75.48, 5.31 113.29 0.48 74
6 04/12/2020 23:34:28 75.47, 172.65 66.71 04/12/2020 23:35:37 75.48, 172.62 66.70 1.17 69
7 04/13/2020 00:25:12 -75.47, -20.05 113.30 04/13/2020 00:26:19 -75.46, -20.09 113.33 1.67 67
8 04/13/2020 01:15:57 75.46, 147.29 66.68 04/13/2020 01:16:59 75.46, 147.23 66.66 2.11 62
9 04/13/2020 02:06:40 -75.47, -45.41 113.33 04/13/2020 02:07:39 -75.49, -45.35 113.33 2.89 59
10 04/13/2020 02:57:25 75.46, 121.94 66.65 04/13/2020 02:58:19 75.48, 121.97 66.66 2.83 54
11 04/13/2020 03:48:09 -75.47, -70.77 113.36 04/13/2020 03:49:01 -75.47, -70.74 113.37 0.85 52
12 04/13/2020 04:38:54 75.46, 96.58 66.62 04/13/2020 04:39:41 75.46, 96.57 66.61 0.95 47
13 04/13/2020 05:29:38 -75.46, -96.13 113.39 04/13/2020 05:30:23 -75.45, -96.14 113.41 1.26 45
14 04/13/2020 06:20:23 75.45, 71.22 66.59 04/13/2020 06:21:03 75.45, 71.17 66.57 1.58 40
15 04/13/2020 07:11:07 -75.46,-121.49 113.42 04/13/2020 07:11:45 -75.43,-121.54 113.45 3.31 38
16 04/13/2020 08:01:52 75.45, 45.86 66.56 04/13/2020 08:02:24 75.47, 45.91 66.57 3.12 32
17 04/13/2020 08:52:36 -75.45,-146.84 113.45 04/13/2020 08:53:06 -75.46,-146.80 113.46 1.41 30
18 04/13/2020 09:43:21 75.44, 20.50 66.53 04/13/2020 09:43:46 75.45, 20.51 66.53 1.05 25
19 04/13/2020 10:34:05 -75.45,-172.20 113.48 04/13/2020 10:34:28 -75.44,-172.20 113.50 1.09 23
20 04/13/2020 11:24:50 75.44, -4.86 66.50 04/13/2020 11:25:08 75.43, -4.89 66.49 1.09 18
21 04/13/2020 12:15:34 -75.45, 162.44 113.51 04/13/2020 12:15:50 -75.42, 162.40 113.54 2.98 16
22 04/13/2020 13:06:19 75.44, -30.22 66.47 04/13/2020 13:06:30 75.41, -30.29 66.45 3.16 11
23 04/13/2020 13:57:03 -75.44, 137.08 113.54 04/13/2020 13:57:11 -75.45, 137.15 113.54 2.01 8
24 04/13/2020 14:47:48 75.43, -55.58 66.44 04/13/2020 14:47:51 75.44, -55.54 66.44 1.40 3
25 04/13/2020 15:38:32 -75.44, 111.72 113.57 04/13/2020 15:38:33 -75.43, 111.75 113.58 1.26 1
26 04/13/2020 16:29:17 75.43, -80.94 66.41 04/13/2020 16:29:13 75.42, -80.94 66.40 0.75 4
27 04/13/2020 17:20:01 -75.44, 86.36 113.60 04/13/2020 17:19:55 -75.41, 86.35 113.62 2.76 6
28 04/13/2020 18:10:46 75.43,-106.30 66.38 04/13/2020 18:10:35 75.40,-106.34 66.36 2.80 11
29 04/13/2020 19:01:30 -75.43, 61.00 113.63 04/13/2020 19:01:16 -75.44, 61.09 113.63 2.63 14
30 04/13/2020 19:52:15 75.42,-131.66 66.35 04/13/2020 19:51:56 75.43,-131.60 66.36 1.88 19
31 04/13/2020 20:42:59 -75.43, 35.64 113.66 04/13/2020 20:42:38 -75.42, 35.69 113.67 1.67 21
32 04/13/2020 21:33:44 75.42,-157.01 66.32 04/13/2020 21:33:18 75.41,-157.00 66.32 0.79 26
33 04/13/2020 22:24:28 -75.42, 10.28 113.69 04/13/2020 22:24:00 -75.40, 10.29 113.71 2.67 28
34 04/13/2020 23:15:13 75.41, 177.63 66.29 04/13/2020 23:14:40 75.39, 177.60 66.28 2.54 33
35 04/14/2020 00:05:57 -75.42, -15.08 113.72 04/14/2020 00:05:21 -75.43, -14.97 113.71 3.26 36
36 04/14/2020 00:56:42 75.41, 152.27 66.26 04/14/2020 00:56:01 75.42, 152.34 66.27 2.41 41
37 04/14/2020 01:47:26 -75.42, -40.44 113.75 04/14/2020 01:46:43 -75.41, -40.36 113.75 2.19 43
38 04/14/2020 02:38:11 75.41, 126.91 66.23 04/14/2020 02:37:23 75.40, 126.94 66.23 1.19 48
39 04/14/2020 03:28:55 -75.41, -65.80 113.78 04/14/2020 03:28:05 -75.39, -65.76 113.79 2.74 50
40 04/14/2020 04:19:40 75.40, 101.55 66.20 04/14/2020 04:18:45 75.38, 101.54 66.19 2.39 55
41 04/14/2020 05:10:24 -75.41, -91.15 113.81 04/14/2020 05:09:26 -75.42, -91.02 113.80 3.89 58
42 04/14/2020 06:01:09 75.40, 76.19 66.17 04/14/2020 06:00:06 75.41, 76.29 66.19 2.96 63
43 04/14/2020 06:51:53 -75.41,-116.51 113.84 04/14/2020 06:50:48 -75.40,-116.42 113.84 2.77 65
44 04/14/2020 07:42:38 75.40, 50.83 66.14 04/14/2020 07:41:28 75.39, 50.89 66.15 1.70 70
45 04/14/2020 08:33:22 -75.40,-141.87 113.87 04/14/2020 08:32:10 -75.38,-141.82 113.88 2.95 72
46 04/14/2020 09:24:05 75.30, 25.76 66.00 04/14/2020 09:22:51 75.32, 25.35 66.07 11.90 74
47 04/14/2020 10:14:48 -75.26,-166.80 114.07 04/14/2020 10:13:35 -75.22,-167.63 114.03 23.86 73
48 04/14/2020 11:05:28 75.01, 1.24 65.64 04/14/2020 11:04:19 75.01, -0.87 65.80 60.68 69
49 04/14/2020 11:56:10 -74.92, 168.80 114.48 04/14/2020 11:55:02 -74.96, 166.30 114.26 72.54 68




NCC Satellite Simultaneous Nadir Overpasses (SNOs) Prediction Service
